User: anonymous   Login
Location: Ceske Budejovice
(48.9830°N, 14.4670°E)
Time: 20:09:12
(UTC+02:00)
Language:

AO-73 - Orbit

View from above orbital plane
View from above orbital plane
View from above satellite
View from above satellite

Ground track
Ground track

The orbit data is extracted from the following two-line orbital elements,

1 39444U 13066AE  19231.82431003  .00000145  00000-0  24123-4 0  9993
2 39444  97.5600 243.8402 0057967 182.3242 177.7711 14.81958911309136
Epoch (UTC): 19 August 2019 19:47:00
Eccentricity: 0.0057967
inclination: 97.5600°
perigee height: 582 km
apogee height: 664 km
right ascension of ascending node: 243.8402°
argument of perigee: 182.3242°
revolutions per day: 14.81958911
mean anomaly at epoch: 177.7711°
orbit number at epoch: 30913

The dashed part of the orbit path shows where the satellite is in the earth's shadow,  

DLR